| time (UTC) | temp F | wind direction | speed MPH | gust MPH | rain 1hr in | rain 24hr in | rain mn in | humidity % | barometer mb |
| 20260504043058 | 46 | 0 | 0.0 | 0.0 | 0.00 | 0.00 | 0.00 | 63 | 1010.8 |
| 20260504041558 | 46 | 0 | 0.0 | 0.0 | 0.00 | 0.00 | 0.00 | 61 | 1010.4 |
| 20260504040105 | 46 | 0 | 0.0 | 0.0 | 0.00 | 0.00 | 0.00 | 61 | 1010.4 |
| 20260504034601 | 47 | 0 | 0.0 | 0.0 | 0.00 | 0.00 | 0.00 | 63 | 1010.3 |
| 20260504033126 | 47 | 0 | 0.0 | 0.0 | 0.00 | 0.00 | 0.00 | 56 | 1010.4 |
| 20260504031557 | 47 | 0 | 0.0 | 0.0 | 0.00 | 0.00 | 0.00 | 61 | 1010.3 |
| 20260504030056 | 48 | 0 | 0.0 | 0.0 | 0.00 | 0.00 | 0.00 | 56 | 1010.3 |
| 20260504024556 | 47 | 0 | 0.0 | 0.0 | 0.00 | 0.00 | 0.00 | 55 | 1010.3 |
| 20260504023102 | 48 | 0 | 0.0 | 0.0 | 0.00 | 0.00 | 0.00 | 59 | 1010.3 |
| 20260504021556 | 48 | 0 | 0.0 | 0.0 | 0.00 | 0.00 | 0.00 | 61 | 1010.3 |
| 20260504020100 | 49 | 0 | 0.0 | 0.0 | 0.00 | 0.00 | 0.00 | 59 | 1010.4 |
| 20260504014555 | 50 | 0 | 0.0 | 0.0 | 0.00 | 0.00 | 0.00 | 57 | 1010.4 |
| 20260504013107 | 50 | 0 | 0.0 | 0.0 | 0.00 | 0.00 | 0.00 | 53 | 1010.1 |
| 20260504011556 | 51 | 0 | 0.0 | 0.0 | 0.00 | 0.00 | 0.00 | 52 | 1010.0 |
| 20260504010111 | 52 | 0 | 0.0 | 0.0 | 0.00 | 0.00 | 0.00 | 48 | 1009.7 |
| 20260504004619 | 54 | 0 | 0.0 | 0.0 | 0.00 | 0.00 | 0.00 | 49 | 1009.6 |
| 20260504003054 | 55 | 0 | 0.0 | 0.0 | 0.00 | 0.00 | 0.00 | 44 | 1009.5 |
| 20260504001604 | 57 | 0 | 0.0 | 0.0 | 0.00 | 0.00 | 0.00 | 39 | 1009.2 |
| 20260504000055 | 57 | 0 | 0.0 | 0.0 | 0.00 | 0.00 | 0.00 | 37 | 1008.8 |
| 20260503234556 | 58 | 0 | 0.0 | 4.0 | 0.00 | 0.00 | 0.00 | 35 | 1008.6 |
| 20260503233059 | 59 | 0 | 0.0 | 7.0 | 0.00 | 0.00 | 0.00 | 33 | 1008.5 |
| 20260503231557 | 59 | 0 | 1.0 | 14.0 | 0.00 | 0.00 | 0.00 | 32 | 1008.2 |
| 20260503224554 | 59 | 252 | 0.0 | 14.0 | 0.00 | 0.00 | 0.00 | 30 | 1008.2 |
| 20260503223059 | 59 | 0 | 3.0 | 14.0 | 0.00 | 0.00 | 0.00 | 31 | 1008.1 |
| 20260503221555 | 60 | 291 | 1.0 | 9.0 | 0.00 | 0.00 | 0.00 | 30 | 1008.1 |
| 20260503220054 | 60 | 336 | 1.0 | 15.0 | 0.00 | 0.00 | 0.00 | 30 | 1008.1 |
| 20260503214554 | 60 | 311 | 4.0 | 13.0 | 0.00 | 0.00 | 0.00 | 29 | 1008.2 |
| 20260503213106 | 60 | 282 | 3.0 | 14.0 | 0.00 | 0.00 | 0.00 | 29 | 1008.2 |
| 20260503211553 | 60 | 0 | 2.0 | 13.0 | 0.00 | 0.00 | 0.00 | 30 | 1008.1 |
| 20260503210104 | 60 | 304 | 3.0 | 13.0 | 0.00 | 0.00 | 0.00 | 31 | 1008.1 |
| 20260503204607 | 60 | 307 | 2.0 | 14.0 | 0.00 | 0.00 | 0.00 | 29 | 1008.2 |
| 20260503203104 | 60 | 319 | 4.0 | 15.0 | 0.00 | 0.00 | 0.00 | 30 | 1008.1 |
| 20260503201558 | 59 | 134 | 3.0 | 16.0 | 0.00 | 0.00 | 0.00 | 30 | 1008.1 |
| 20260503194558 | 58 | 0 | 2.0 | 11.0 | 0.00 | 0.00 | 0.00 | 32 | 1008.5 |
| 20260503193127 | 58 | 0 | 1.0 | 16.0 | 0.00 | 0.00 | 0.00 | 35 | 1008.6 |
| 20260503191620 | 57 | 310 | 4.0 | 15.0 | 0.00 | 0.00 | 0.00 | 33 | 1008.7 |
| 20260503190054 | 56 | 272 | 2.0 | 15.0 | 0.00 | 0.00 | 0.00 | 34 | 1009.0 |
| 20260503184559 | 57 | 273 | 2.0 | 13.0 | 0.00 | 0.00 | 0.00 | 34 | 1009.0 |
| 20260503183114 | 56 | 0 | 4.0 | 15.0 | 0.00 | 0.00 | 0.00 | 35 | 1009.1 |
| 20260503181555 | 55 | 0 | 2.0 | 15.0 | 0.00 | 0.00 | 0.00 | 36 | 1009.1 |
| 20260503180059 | 54 | 0 | 2.0 | 12.0 | 0.00 | 0.00 | 0.00 | 38 | 1009.3 |
| 20260503174557 | 52 | 342 | 0.0 | 17.0 | 0.00 | 0.00 | 0.00 | 41 | 1009.3 |
| 20260503173116 | 53 | 0 | 1.0 | 14.0 | 0.00 | 0.00 | 0.00 | 41 | 1009.5 |
| 20260503171554 | 52 | 243 | 4.0 | 18.0 | 0.00 | 0.00 | 0.00 | 42 | 1009.6 |
| 20260503120124 | 44 | 292 | 0.0 | 18.0 | 0.00 | 0.00 | 0.00 | 60 | 1010.1 |
| 20260503100104 | 43 | 0 | 0.0 | 5.0 | 0.00 | 0.00 | 0.00 | 60 | 1009.1 |
| 20260503081555 | 45 | 0 | 2.0 | 9.0 | 0.00 | 0.00 | 0.00 | 56 | 1008.8 |
| 20260503071557 | 46 | 0 | 0.0 | 0.0 | 0.00 | 0.00 | 0.00 | 56 | 1008.6 |
| 20260503070106 | 46 | 0 | 0.0 | 3.0 | 0.00 | 0.00 | 0.00 | 55 | 1008.8 |
| 20260503054553 | 48 | 337 | 0.0 | 8.0 | 0.00 | 0.00 | 0.00 | 50 | 1009.0 |
| 20260503053052 | 48 | 0 | 0.0 | 4.0 | 0.00 | 0.00 | 0.00 | 50 | 1009.1 |
| 20260503051554 | 48 | 0 | 0.0 | 6.0 | 0.00 | 0.00 | 0.00 | 50 | 1009.3 |
| 20260503050055 | 49 | 0 | 0.0 | 10.0 | 0.00 | 0.00 | 0.00 | 49 | 1009.4 |
| 20260503044555 | 49 | 330 | 0.0 | 3.0 | 0.00 | 0.00 | 0.00 | 49 | 1009.5 |